Location: LDNL
(36.4545°S, 141.6685°E)
Time: 14:37:21
(UTC+11:00)

Courier 1B Rocket - Pass Details

Date: 02 February 2023
Orbit: 920 x 1202 km, 28.2° (Epoch: 25 March)

Event Time Altitude Azimuth Distance (km) Brightness Sun altitude
Rises 09:07:22 0° 280° (W) 4,105 7.7 26.0°
Reaches altitude 10° 09:10:22 10° 286° (WNW) 3,135 7.2 26.6°
Maximum altitude 09:17:44 45° 355° (N) 1,549 6.4 28.1°
Drops below altitude 10° 09:24:47 10° 65° (ENE) 3,006 8.8 29.5°
Sets 09:27:37 0° 71° (ENE) 3,924 9.2 30.0°
